Preview of NWS' New Version of Forecast
This preview is not operational and should not be used for support decisions.

Regional Weather Roundup (RWR)

Issued by National Weather Service (NWS)

                            
000
ASUS43 KBIS 220102
RWRND 

NORTH DAKOTA REGIONAL WEATHER ROUNDUP
NATIONAL WEATHER SERVICE BISMARCK ND
800 PM CDT SUN JUL 21 2019

NOTE: "FAIR" INDICATES FEW OR NO CLOUDS BELOW 12,000 FEET WITH NO
SIGNIFICANT WEATHER AND/OR OBSTRUCTIONS TO VISIBILITY.


NDZ001>003-009>011-017-220200-
NORTHWEST NORTH DAKOTA
  
CITY           SKY/WX    TMP DP  RH WIND       PRES   REMARKS
WILLISTON      SUNNY     77  50  38 N9        30.24S                  
MINOT          SUNNY     73  56  54 E5        30.23R                  
$$
 
NDZ018>021-031>035-040>046-220200-
SOUTHWEST NORTH DAKOTA
  
CITY           SKY/WX    TMP DP  RH WIND       PRES   REMARKS
BISMARCK       SUNNY     68  60  75 SE5       30.24S                  
DICKINSON      CLOUDY    73  55  53 N3        30.24S                  
GARRISON         N/A     72  54  53 CALM      30.23S                  
HETTINGER ARPT SUNNY     71  51  49 W3        30.28R                  
$$
 
NDZ004>008-012>016-024-026-027-054-220200-
NORTHEAST NORTH DAKOTA
  
CITY           SKY/WX    TMP DP  RH WIND       PRES   REMARKS
GRAND FORKS    SUNNY     71  48  43 N10       30.19R                  
DEVILS LAKE    SUNNY     70  53  54 NE9       30.24R                  
$$
 
NDZ022-023-025-028>030-036>039-047>053-220200-
SOUTHEAST NORTH DAKOTA
  
CITY           SKY/WX    TMP DP  RH WIND       PRES   REMARKS
FARGO          SUNNY     72  56  57 N10       30.18R                  
JAMESTOWN      SUNNY     68  58  70 N7        30.22S                  
$$